Погода в Верхнем Любаже

Россия / Курская область     52°12′51″N   35°50′19″E
темп.,
°C
ветер,
м/с
пор.,
м/с
влажн.,
%
обл.,
%
осадки,
мм/ч
давл.,
гПа
погр.,
м
28 июля, ср
ср2800:00+20юв1155100 0.0 101811
03:00+20ююв3353100 0.0 101736
06:00+19ю3657100 0.0 1016103
09:00+21ю3855100 0.0 1016299
12:00+20юв1166100 0.1 101519
15:00+21юз3670100 0.1 1015436
18:00+22ююв356819 0.4 1012281
21:00+20ююв3481100 0.5 101271
29 июля, чт
чт2900:00+17юз35903 0.0 101294
03:00+17з37945 0.0 1011121
06:00+18з3691100 0.0 1011128
09:00+24з3469100 0.0 1010445
12:00+28з56521 0.9 10101645
15:00+30з573925 0.9 10092647
18:00+27сз245363 0.0 1008400
21:00+24всв015794 0.0 100811
30 июля, пт
пт3000:00+22ююв346345 0.0 100843
03:00+19юз337588 0.1 100754
06:00+18з368829 0.8 1007159
09:00+22зсз237713 1.0 1007552
12:00+26зсз4560100 0.1 10071345
15:00+26зсз4556100 0.1 10081619
18:00+25сз475991 0.0 1008739
21:00+20ссз227231 0.0 100816
31 июля, сб
сб3100:00+18зсз22778 0.0 101013
03:00+17зюз227845 0.0 101011
06:00+17зюз33792 0.0 101058
09:00+23зюз46565 0.0 1011479
12:00+27зюз564348 0.0 10101963
15:00+29з57367 0.0 10102418
18:00+28з354250 0.0 1009677
21:00+22ююв115978 0.0 101011
1 августа, вс
вс100:00+20ю33665 0.0 101021
03:00+19ю49613 0.0 1010150
06:00+18ю49680 0.0 1009175
09:00+25ююз6115180 0.0 1009505
12:00+28юз81143100 0.0 10091433
15:00+28зюз6848100 0.0 10091889
18:00+28зсз555174 0.0 10081229
21:00+21ссз37740 0.0 1010129